Location: Ida Center
(41.8662°N, 83.5713°W)
Time: 16:16:48
(UTC+00:00)

ALOS - Pass Details

Date: 17 November 2019
Orbit: 683 x 685 km, 97.8° (Epoch: 09 December)

Event Time Altitude Azimuth Distance (km) Brightness Sun altitude
Rises 22:36:55 0° 183° (S) 3,033 5.9 -5.1°
Reaches altitude 10° 22:39:15 10° 190° (S) 2,122 5.3 -5.5°
Maximum altitude 22:43:40 43° 262° (W) 962 3.7 -6.3°
Drops below altitude 10° 22:48:07 10° 334° (NNW) 2,137 4.9 -7.1°
Sets 22:50:28 0° 341° (NNW) 3,057 5.6 -7.5°
